SCP
1 1 1 2 2 2 2 2 2 1 1 1 1 1 1 2 2 2 2 2 2 1 1 1 1 1 1 1 1 1 1 1 1 1 1 1 1 1 1 1 1 1 1
1 1 2 2 2 2 2 2 2 1 1 1 1 1 1 1 1 2 2 1 1 1 1 1 1 1 1 1 1 1 1 1 1 1 1 1 1 1 1 1 1 1 1
1 1 2 2 2 2 2 2 1 1 1 1 1 1 1 1 1 1 1 1 1 1 1 1 1 1 1 1 1 1 1 1 1 1 1 0 1 1 1 1 1 1 1
1 1 1 1 1 1 1 1 1 1 1 1 1 1 1 1 1 1 1 1 1 1 1 0 0 0 0 0 1 1 1 1 1 1 0 0 0 1 1 1 1 1 1
1 1 1 1 1 1 1 1 1 1 1 1 1 1 1 1 1 1 1 1 1 1 0 0 0 0 0 0 0 0 1 1 1 0 0 0 0 1 1 1 1 1 1
0 1 1 1 1 1 1 1 1 1 1 1 1 1 1 1 1 1 1 1 0 0 0 0 0 0 0 0 0 0 1 0 0 0 1 1 1 1 1 1 1 1 1
0 0 1 1 1 1 1 1 1 1 1 1 1 0 1 0 0 0 0 0 0 0 0 0 0 0 0 0 0 0 1 0 0 0 1 1 1 1 1 1 1 1 1
1 1 1 1 1 1 1 1 1 1 1 1 0 0 0 0 0 0 0 0 0 0 0 0 0 0 0 0 0 0 0 0 0 0 0 1 1 1 1 1 1 1 1
1 1 1 1 1 1 1 1 1 1 1 1 0 0 0 0 0 1 1 1 0 0 0 0 0 0 0 0 0 0 0 0 0 0 1 1 1 2 2 2 2 2 1
1 1 1 1 1 1 1 1 1 1 1 1 1 0 0 0 0 1 1 1 0 0 0 0 0 0 0 0 0 0 1 0 0 0 1 1 2 2 2 2 2 2 2
1 1 1 1 1 1 1 1 1 1 1 0 0 0 0 0 0 0 1 1 0 0 0 0 0 0 0 0 0 0 1 1 0 0 1 1 2 2 2 2 2 2 2
1 1 1 1 1 1 1 1 1 1 0 0 0 0 0 0 0 0 0 0 0 0 0 0 0 0 0 0 0 0 1 1 1 0 1 1 2 2 2 2 2 2 2
2 2 2 2 2 1 1 1 1 1 0 0 0 0 0 0 0 0 0 0 0 0 0 0 0 0 0 0 0 0 0 0 0 0 1 1 2 2 2 2 2 2 2
3 3 2 2 2 2 2 2 1 1 0 0 0 0 0 0 0 0 0 0 0 0 0 0 0 0 0 0 0 0 0 0 0 0 1 2 2 2 2 2 2 2 2
4 4 4 3 3 2 2 2 1 1 0 0 0 0 0 0 0 0 0 0 0 0 0 0 0 0 0 0 0 0 0 0 0 0 1 2 3 3 3 3 3 3 3
6 5 5 4 4 3 2 2 1 1 1 0 0 0 0 1 1 1 1 1 0 0 1 1 1 1 1 0 0 0 0 0 0 0 1 2 3 4 4 4 4 3 3
8 8 7 6 5 4 3 2 2 2 1 1 1 1 1 1 1 1 1 1 1 1 1 1 1 1 1 0 0 0 0 0 0 0 0 1 2 3 4 4 4 4 3
11 11 10 8 7 6 5 4 4 3 2 2 1 1 1 1 1 1 1 1 1 1 0 0 0 0 0 0 0 0 0 0 0 0 0 0 1 2 3 3 4 4 4
13 13 12 11 9 7 6 5 5 5 4 3 2 2 2 1 1 1 1 1 0 0 0 0 0 0 0 0 0 0 0 0 0 0 0 0 0 1 1 2 2 3 3
14 14 14 12 10 9 8 7 7 6 5 4 3 2 2 2 1 1 1 0 0 0 0 0 0 0 0 0 0 0 0 0 0 0 0 0 0 0 0 1 1 2 2
15 15 15 14 12 11 10 9 9 8 6 5 3 2 1 1 1 1 0 0 0 0 0 0 0 0 0 0 0 0 0 0 0 0 0 0 0 0 0 0 0 0 1
17 17 16 15 15 14 13 10 9 7 6 4 2 1 1 1 0 0 0 0 0 0 0 0 0 0 0 0 0 0 0 0 0 0 0 0 0 0 0 0 0 0 0
19 19 18 18 18 16 14 10 8 6 4 2 1 0 0 0 0 0 0 0 0 0 0 0 0 0 0 0 0 0 0 0 0 0 0 0 0 0 0 0 0 0 0
19 19 19 18 16 14 12 10 7 4 2 1 0 0 0 0 0 0 0 0 0 0 0 0 0 0 0 0 0 0 0 0 0 0 0 0 0 0 0 0 0 0 0
19 18 16 14 11 9 9 7 5 3 1 0 0 0 0 0 0 0 0 0 0 0 0 0 0 0 0 0 0 0 0 0 0 0 0 0 0 0 0 0 0 0 0
17 16 13 10 8 7 6 5 3 1 0 0 0 0 0 0 0 0 0 0 0 0 0 0 0 0 0 0 0 0 0 0 0 0 0 0 0 0 0 0 0 0 0
Wind_Speed
7 6 12 14 14 14 15 15 15 15 15 15 15 15 15 14 14 14 13 13 12 12 12 12 11 10 10 10 10 10 10 9 9 10 11 12 12 12 12 14 13 10 14
12 9 13 14 14 14 14 15 15 14 14 15 14 14 14 14 13 12 12 12 11 11 11 10 10 9 8 8 8 8 8 7 6 7 8 9 10 11 13 13 12 8 12
13 9 12 14 15 15 14 14 14 14 15 14 14 14 13 13 12 12 12 11 10 10 10 9 8 8 7 6 6 6 5 5 4 4 4 3 4 9 11 12 12 12 11
13 9 11 15 15 15 15 14 14 15 15 15 14 14 13 12 11 11 11 11 10 9 9 8 7 6 5 4 4 4 4 4 3 3 1 1 2 8 10 11 11 11 10
11 9 12 16 15 15 15 14 14 15 15 15 14 14 13 12 11 10 10 10 9 9 8 7 6 4 3 2 3 3 4 4 4 3 0 2 3 7 9 10 11 10 10
12 10 12 16 16 15 15 15 14 15 15 14 14 14 12 11 10 10 10 10 9 8 7 6 4 3 1 1 2 3 4 4 4 1 1 2 4 8 9 10 10 9 8
11 8 10 15 16 16 16 15 15 14 14 13 13 13 11 10 9 9 9 9 8 7 6 5 4 2 1 1 2 3 4 5 3 1 2 3 5 9 9 9 9 8 8
13 10 10 16 17 16 16 15 14 13 13 12 12 11 10 9 9 9 9 8 8 7 6 5 4 3 3 3 3 4 4 3 3 2 2 3 7 9 10 9 9 8 7
13 11 8 9 12 16 16 15 14 13 12 12 11 11 10 9 9 9 9 8 8 7 6 6 5 5 4 4 5 4 3 2 1 1 4 3 7 10 10 10 9 8 8
11 11 9 8 8 8 10 15 15 14 13 13 12 12 11 11 10 10 9 8 8 8 7 6 6 5 5 5 6 5 4 1 1 2 3 4 10 11 11 10 9 8 8
11 9 10 9 8 8 8 12 13 14 13 12 11 13 10 5 5 6 8 9 9 9 8 7 6 6 5 6 7 6 3 0 1 2 3 7 10 11 11 10 9 9 8
14 12 10 11 10 9 8 7 5 6 7 6 5 6 5 4 4 6 8 10 10 9 8 8 7 6 4 3 5 5 1 1 2 3 4 9 10 11 11 10 9 9 9
16 15 13 12 11 10 6 6 4 3 4 5 6 7 5 4 3 4 3 4 5 6 3 3 4 2 2 3 2 1 0 1 2 2 4 10 10 11 11 11 10 9 9
16 16 15 14 12 11 8 7 6 5 5 5 6 7 5 4 4 4 3 3 3 2 2 2 2 3 3 3 2 1 1 1 2 2 4 10 10 11 11 11 11 10 9
17 17 17 15 14 12 10 8 8 7 7 7 6 7 7 5 5 5 4 3 4 3 3 2 2 2 2 1 0 1 2 2 2 3 3 9 9 9 10 11 11 10 9
17 17 16 17 16 14 11 9 8 8 7 7 6 7 8 6 5 5 4 3 3 3 3 3 2 2 1 1 3 3 2 2 1 1 2 4 8 9 9 10 10 9 8
16 15 16 17 16 15 13 11 9 8 7 7 6 6 7 6 6 5 4 3 2 3 3 3 3 3 3 3 4 4 3 3 2 1 1 2 3 7 10 10 9 9 8
14 15 16 16 15 15 11 9 7 7 7 6 5 4 6 6 6 5 4 3 2 3 3 3 3 3 3 3 3 3 3 3 4 3 2 2 2 3 6 9 9 9 8
16 17 16 13 15 13 10 7 6 6 6 5 4 4 4 5 6 5 4 3 4 4 3 3 3 3 2 3 2 2 3 3 4 4 4 3 2 2 2 4 6 6 7
15 16 15 13 13 11 8 6 5 6 5 4 4 5 6 6 7 6 5 5 5 4 4 3 4 4 3 2 3 3 3 3 3 3 4 3 4 4 4 3 3 3 5
13 13 14 13 12 10 8 7 6 5 5 5 5 6 7 7 7 7 6 5 4 4 3 3 3 4 4 3 3 4 4 3 3 3 3 4 5 5 5 4 3 2 3
14 12 11 11 10 8 6 4 4 6 5 5 5 6 7 7 7 7 7 5 4 4 5 4 3 2 3 4 2 2 4 5 4 3 3 4 5 4 5 6 3 3 3
12 11 10 9 8 7 8 8 7 6 5 4 5 5 5 7 8 7 7 6 5 4 4 4 4 4 2 3 3 2 1 2 4 4 3 3 5 4 5 5 6 5 5
10 9 10 9 9 9 8 9 10 6 5 4 4 5 6 7 7 7 7 6 5 4 4 4 4 3 3 2 2 2 2 2 1 4 5 4 5 4 4 5 6 6 6
11 10 9 10 8 8 8 9 9 8 7 6 6 7 6 5 6 7 6 6 5 4 4 4 3 3 2 2 1 0 1 1 1 2 4 5 5 4 3 4 3 4 5
11 11 9 10 8 7 8 8 10 11 11 10 8 6 5 4 4 5 6 5 5 4 3 3 2 2 1 1 1 1 1 1 2 2 4 4 5 5 4 4 4 4 5
Wind_Direction
153 164 141 132 131 129 127 123 120 116 112 109 106 104 102 101 102 105 107 109 110 111 110 108 105 101 98 97 98 98 99 100 103 106 108 108 105 99 101 111 107 104 106
150 155 139 132 132 131 130 127 124 120 116 112 110 107 105 104 103 104 106 107 108 110 110 108 105 101 97 94 93 94 94 92 90 98 104 109 109 105 105 109 111 112 109
142 145 135 131 132 132 131 129 126 124 120 117 114 112 109 107 106 106 107 108 109 110 110 108 103 99 93 87 81 78 78 77 73 77 91 92 115 117 115 115 116 115 113
141 140 136 132 131 131 130 129 129 127 124 122 120 118 116 113 110 110 111 112 112 112 111 109 105 99 90 78 65 54 48 43 38 31 67 160 166 137 129 125 123 122 120
138 136 138 134 132 132 131 130 130 130 128 127 126 124 121 119 117 116 118 119 119 118 117 116 111 105 92 66 39 23 15 11 10 12 292 205 175 154 142 137 133 130 130
139 138 139 137 135 134 133 132 133 133 133 132 131 129 126 126 126 127 127 128 128 129 130 130 129 128 119 46 356 352 355 357 4 356 214 159 156 161 151 145 141 139 139
138 136 140 138 138 138 137 136 136 136 135 135 134 133 132 133 134 135 137 138 139 140 143 146 152 166 206 268 304 330 346 359 35 35 109 144 158 157 151 146 143 145 149
141 139 142 144 143 143 142 140 139 139 138 139 139 138 138 139 140 140 142 145 147 151 157 163 177 203 236 264 287 312 342 15 54 64 104 137 153 151 148 142 139 144 154
143 144 146 149 149 148 147 145 145 144 144 145 145 145 146 147 149 150 151 154 158 164 172 183 200 222 246 268 288 309 332 4 92 173 158 155 160 157 153 148 146 146 148
147 152 152 150 149 149 151 153 153 153 153 154 155 156 157 160 163 165 164 169 174 180 188 199 213 232 255 275 289 298 304 335 163 186 161 175 167 161 158 156 155 154 156
155 160 159 158 156 154 156 163 161 162 164 163 164 166 164 165 170 173 180 184 187 192 200 209 220 237 260 283 292 295 305 168 184 172 172 179 173 169 166 163 163 165 168
167 171 170 167 165 165 170 160 166 168 170 169 170 170 168 175 186 188 195 195 196 201 210 219 229 245 265 287 296 303 297 199 173 170 185 182 181 177 173 172 174 177 181
172 173 174 174 172 173 169 164 175 175 176 180 181 180 179 181 190 192 185 200 203 209 217 238 246 249 261 273 294 309 242 180 159 175 188 187 187 184 181 182 185 188 192
173 177 175 178 177 179 171 175 179 181 186 192 193 187 181 183 189 186 186 191 195 202 207 233 236 241 250 261 255 225 121 140 156 170 198 193 194 193 191 193 196 198 200
177 178 178 180 181 179 174 182 182 188 192 198 195 193 187 185 189 188 190 193 199 197 196 204 220 224 224 240 186 102 109 133 165 181 205 203 205 206 204 204 205 206 206
179 181 178 182 183 180 180 186 184 189 191 195 195 191 185 181 178 175 178 185 194 188 181 173 168 145 112 69 47 43 62 85 129 184 219 225 223 222 222 221 218 214 212
176 176 180 183 181 182 183 188 184 185 184 188 189 183 175 168 166 162 159 160 173 159 141 121 108 87 73 55 40 31 34 27 36 16 256 260 261 249 241 233 222 217 220
170 174 182 182 178 179 179 179 177 177 175 175 170 162 157 149 144 138 133 133 126 110 108 102 87 78 61 46 19 6 15 10 4 350 333 294 269 266 261 248 234 226 228
173 174 181 176 173 172 166 157 156 156 155 152 143 133 129 122 119 114 109 100 95 82 74 85 65 71 55 27 360 5 357 347 339 339 336 334 328 307 294 275 264 252 251
174 174 178 172 170 160 146 130 127 118 116 111 111 110 107 100 100 97 87 77 81 80 64 63 66 51 51 23 3 353 331 330 343 0 3 17 18 14 12 10 358 343 327
172 173 173 170 169 157 150 146 137 126 113 98 91 92 94 95 94 89 87 73 69 76 77 75 72 54 33 18 30 351 334 346 14 35 33 39 26 16 13 15 9 359 336
171 168 166 165 160 152 141 125 117 113 98 87 85 76 78 86 89 93 90 85 79 83 66 54 64 69 32 31 64 35 347 340 345 10 15 33 18 11 8 1 352 345 325
162 160 155 147 136 126 123 113 106 94 85 78 78 75 71 82 82 84 84 82 73 79 81 70 66 83 63 26 50 105 102 287 313 323 347 16 10 7 356 347 356 349 341
141 131 126 121 119 121 129 135 136 132 126 119 116 103 86 83 89 90 89 86 82 82 85 78 76 81 89 49 25 45 135 176 233 311 323 339 350 353 344 344 342 338 339
120 117 114 108 109 119 127 132 126 120 118 122 117 109 101 98 101 100 95 90 90 89 89 83 80 77 95 122 107 18 22 37 144 193 290 312 320 312 308 309 311 315 320
109 106 107 105 101 105 109 116 126 131 134 134 128 122 113 102 94 97 96 95 98 98 97 100 95 91 113 153 184 188 181 217 249 221 250 273 285 288 290 286 288 290 293